Home > Weather > Ajmān > Past weeks

Flag for United Arab Emirates Past Weather in Ajmān, Ajman, United Arab Emirates — Yesterday and Last 2 Weeks

Now
93 °F

Clear.


Feels Like: 113 °F
Forecast: 90 / 105 °F
Wind: 20 mph from East

Location: Sharjah International Airport

Current Time: Jul 24, 2016 at 5:04:10 AM

Latest Report: Jul 24, 2016 at 4:00 AM


Visibility: 4 mi

Pressure: 29.42 "Hg

Humidity: 67%

Dew Point: 81 °F

Location of AjmānLocation

Past Weather in Ajmān — Graph

°F

Ajmān Temperature Yesterday

Maximum temperature yesterday: 111 °F (at 11:00 AM)
Minimum temperature yesterday: 88 °F (at 6:00 AM)
Average temperature yesterday: 99 °F

High & Low Weather Summary for the Past Weeks

 TemperatureHumidityPressure
High115 °F (Jul 15, 12:00 PM)84% (Jul 9, 6:00 AM)29.59 "Hg (Jul 9, 6:00 AM)
Low86 °F (Jul 9, 6:00 AM)13% (Jul 11, 2:00 PM)29.33 "Hg (Jul 11, 3:00 PM)
Average99 °F47%29.45 "Hg
* Reported Jul 9 4:00 AM — Jul 24 4:00 AM, Ajmān, Weather by CustomWeather, © 2016

Note: Actual official high and low records may vary slightly from our data, if they occured in-between our weather recording intervals... More about our weather records

Advertising

Ajmān Weather History for the Previous 24 Hours

Scroll right to see more
 ConditionsComfort  
Time TempWeatherWind HumidityBarometerVisibility
4:00 AM
Sun, Jul 24
93 °FClear.20 mph67%29.42 "Hg4 mi
3:00 AM93 °FClear.14 mph71%29.39 "Hg10 mi
2:00 AM93 °FClear.15 mph71%29.39 "Hg10 mi
1:00 AM91 °FClear.6 mph44%29.36 "Hg10 mi
12:00 AM95 °FClear.8 mph41%29.36 "Hg10 mi
11:00 PM
Sat, Jul 23
99 °FClear.8 mph42%29.36 "Hg10 mi
10:00 PM95 °FClear.No wind47%29.39 "Hg10 mi
9:00 PM97 °FClear.2 mph50%29.39 "Hg10 mi
8:00 PM99 °FClear.2 mph44%29.36 "Hg10 mi
7:00 PM100 °FSunny.3 mph37%29.36 "Hg10 mi
6:00 PM102 °FSunny.8 mph33%29.36 "Hg10 mi
5:00 PM104 °FSunny.8 mph31%29.36 "Hg10 mi
4:00 PM102 °FSunny.13 mph45%29.36 "Hg10 mi
3:00 PM104 °FSunny.16 mph43%29.36 "Hg10 mi
2:00 PM108 °FSunny.18 mph23%29.39 "Hg10 mi
1:00 PM106 °FSunny.14 mph30%29.39 "Hg10 mi
12:00 PM106 °FSunny.12 mph30%29.39 "Hg10 mi
11:00 AM111 °FSunny.7 mph14%29.42 "Hg10 mi
10:00 AM108 °FSunny.9 mph18%29.42 "Hg10 mi
9:00 AM102 °FSunny.7 mph23%29.42 "Hg10 mi
8:00 AM99 °FSunny.9 mph25%29.42 "Hg10 mi
7:00 AM93 °FSunny.10 mph36%29.42 "Hg10 mi
6:00 AM88 °FSunny.3 mph46%29.39 "Hg10 mi
5:00 AM93 °FClear.6 mph39%29.39 "Hg10 mi
Weather by CustomWeather, © 2016

See weather overviewHow to use our weather pages